This is the latest recevied weather packets stored in our database for station/object W4KAB. If no packets are shown the sender has not sent any weather packets the latest 10 day(s).
| Time | Temp. | Humidity | Pressure | Rain* | Wind** | Luminosity | Snow |
|---|---|---|---|---|---|---|---|
| 1777471976 | 15° C | 99% | 1014.6 hPa | 0 mm | - | 33 W/m² | - |
| 1777471673 | 15° C | 99% | 1014.7 hPa | 0 mm | - | 33 W/m² | - |
| 1777471370 | 15° C | 99% | 1014.8 hPa | 0 mm | - | 40 W/m² | - |
| 1777471066 | 15° C | 99% | 1014.7 hPa | 0 mm | - | 47 W/m² | - |
| 1777470763 | 14.44° C | 99% | 1014.6 hPa | 0 mm | - | 37 W/m² | - |
| 1777470459 | 14.44° C | 99% | 1014.9 hPa | 0 mm | - | 46 W/m² | - |
| 1777470156 | 14.44° C | 99% | 1014.8 hPa | 0 mm | - | 23 W/m² | - |
| 1777469852 | 14.44° C | 99% | 1014.7 hPa | 0 mm | - | 21 W/m² | - |
| 1777469548 | 14.44° C | 99% | 1014.8 hPa | 0 mm | - | 28 W/m² | - |
| 1777469248 | 14.44° C | 99% | 1014.7 hPa | 0 mm | - | 29 W/m² | - |
| 1777468943 | 14.44° C | 99% | 1014.9 hPa | 0 mm | - | 11 W/m² | - |
| 1777468639 | 14.44° C | 99% | 1014.9 hPa | 0 mm | - | 8 W/m² | - |
| 1777468336 | 14.44° C | 99% | 1015 hPa | 0 mm | - | 8 W/m² | - |
| 1777468032 | 14.44° C | 99% | 1015 hPa | 0 mm | - | 11 W/m² | - |
| 1777467729 | 14.44° C | 99% | 1015 hPa | 0 mm | - | 10 W/m² | - |
| 1777467424 | 14.44° C | 99% | 1014.9 hPa | 0 mm | - | 16 W/m² | - |
| 1777467119 | 14.44° C | 99% | 1015.2 hPa | 0 mm | - | 18 W/m² | - |
| 1777466817 | 14.44° C | 99% | 1015.5 hPa | 0 mm | - | 14 W/m² | - |
| 1777466515 | 14.44° C | 99% | 1015.4 hPa | 0 mm | - | 14 W/m² | - |
| 1777466210 | 14.44° C | 99% | 1015.5 hPa | 0 mm | - | 13 W/m² | - |
| 1777465907 | 14.44° C | 99% | 1015.6 hPa | 0 mm | - | 12 W/m² | - |
| 1777465603 | 14.44° C | 99% | 1015.5 hPa | 0 mm | - | 9 W/m² | - |
| 1777465298 | 14.44° C | 99% | 1015.6 hPa | 0 mm | - | 10 W/m² | - |
| 1777464993 | 14.44° C | 99% | 1015.3 hPa | 0 mm | - | 13 W/m² | - |
| 1777464688 | 14.44° C | 99% | 1015 hPa | 0 mm | - | 12 W/m² | - |
* Rain latest hour (hover to see other rain measurements)
** Current wind speed in m/s (hover to see current wind gust speed)